LMRST-SAT

Last updated on Wed Oct 29 2025 00:03:53 GMT+0000 (Coordinated Universal Time)

1 40971U 15058H 25301.31756818 .00003194 00000+0 29608-3 0 9994 2 40971 64.7754 274.5889 0142913 148.7457 212.2252 14.88877181 79011
UTC large
Height (km)
Speed (km/s)
/
Latitude / Longitude
Inclination (degrees)
Orbital Period (minutes)
Azimuth
Elevation
Range (km)
Doppler Factor

Next 0 passes for location: London (51.5072 / 0.1276)

Sorry there are no passes over London.